Terminal Aerodrome Forecast
Issued by NWS North Platte, NE

Home | Current Version | Previous Version | Text Only | Print | Product List | Glossary On
Versions: 1 2 3 4 5 6 7 8 9 10 11 12 13 14 15
000
FTUS43 KLBF 180333 AAC
TAFLBF
TAF AMD
KLBF 180333Z 1804/1824 02009KT P6SM VCSH BKN070 OVC080
     FM180500 36015G24KT 6SM -RA BR BKN015 OVC035
     FM180700 36017G27KT 4SM -RASN OVC012
     FM181000 33018G29KT P6SM VCSH SCT020 BKN045 OVC150
     FM181200 31016G26KT P6SM FEW250=

USA.gov is the U.S. government's official web portal to all federal, state and local government web resources and services.